Location: Cluj-Napoca
(46.7712°N, 23.6236°E)
Time: 12:17:29
(UTC+03:00)

ISS - Pass Details

Date: 08 May 2021
Orbit: 417 x 422 km, 51.6° (Epoch: 15 May)

Event Time Altitude Azimuth Distance (km) Brightness Sun altitude
Rises 05:23:21 0° 292° (WNW) 2,372 -0.3 -6.3°
Reaches altitude 10° 05:25:31 10° 300° (WNW) 1,507 -1.2 -6.0°
Maximum altitude 05:28:46 42° 13° (NNE) 613 -2.5 -5.5°
Drops below altitude 10° 05:32:00 10° 86° (E) 1,506 0.2 -5.0°
Sets 05:34:11 0° 94° (E) 2,370 1.1 -4.7°
